Regional Weather Roundup
Issued by NWS Albany, NY

Home | Current Version | Previous Version | Graphics & Text | Print | Product List | Glossary Off
Versions: 1 2 3 4 5 6 7 8 9 10 11 12 13 14 15 16 17 18 19 20 21 22 23 24 25 26 27 28 29 30 31 32 33 34 35 36 37 38 39 40 41 42 43 44 45 46 47 48 49 50

000
ASUS41 KALY 061410
RWRALY

NEW YORK STATE HOURLY WEATHER ROUNDUP
NATIONAL WEATHER SERVICE ALBANY NY
900 AM EST TUE DEC 06 2016

NOTE: "FAIR" INDICATES FEW OR NO CLOUDS BELOW 12,000 FEET WITH NO
SIGNIFICANT WEATHER AND/OR NO OBSTRUCTIONS TO VISIBILITY.

NYZ032-033-038>043-046>054-057>066-NYZ062>081-082-084-061500-
EAST


CITY           SKY/WX    TMP DP  RH WIND       PRES   REMARKS
ALBANY         MOSUNNY   37  32  82 CALM      30.14R
GLENS FALLS    CLOUDY    30  28  92 E5        30.14R WCI  25
POUGHKEEPSIE   SUNNY     30  27  88 CALM      30.15R
NEWBURGH       SUNNY     34  30  86 CALM      30.15R
MONTGOMERY     SUNNY     34  29  82 S3        30.13R
WHITE PLAINS   SUNNY     37  30  75 NW5       30.13R WCI  33
ISLIP          PTSUNNY   36  32  85 CALM      30.14R
NEW YORK CITY  CLOUDY    44  30  57 VRB5      30.14R
CENTRAL PARK   PTSUNNY   43  29  57 CALM      30.16R
$$

NYZ005>009-017-018-044>046-055-056-061500-
CENTRAL


CITY           SKY/WX    TMP DP  RH WIND       PRES   REMARKS
FULTON         SUNNY     34  30  85 CALM      30.11R
SYRACUSE       PTSUNNY   32  30  92 E6        30.11S WCI  26
ROME           SUNNY     31  31 100 CALM      30.13F
ELMIRA         MOSUNNY   27  24  89 CALM      30.08F
BINGHAMTON     CLOUDY    29  27  92 SE5       30.06F WCI  24
MONTICELLO     CLOUDY    28  27  93 CALM      30.11S
$$

NYZ026>034-041>043-087-061500-
NORTH


CITY           SKY/WX    TMP DP  RH WIND       PRES   REMARKS
WATERTOWN      MOSUNNY   31  29  92 E5        30.11S FOG     WCI  26
FORT DRUM      NOT AVBL
OGDENSBURG     FAIR      35  34  97 CALM      30.12S
MASSENA        CLOUDY    32  30  92 SE3       30.15S
SARANAC LAKE   SUNNY     26  23  88 CALM      30.04F
PLATTSBURGH    CLOUDY    31  28  89 CALM      30.15S FOG
$$

NYZ001>004-010>016-019>021-085-061500-
WEST


CITY           SKY/WX    TMP DP  RH WIND       PRES   REMARKS
NIAGARA FALLS  CLOUDY    33  27  78 E7        30.00F WCI  27
BUFFALO        CLOUDY    35  26  69 E8        29.99F WCI  29
DUNKIRK        MOSUNNY   34  28  79 VRB7      29.96F WCI  28
JAMESTOWN      MOSUNNY   34  25  69 SE12      29.91F WCI  25
WELLSVILLE     MOSUNNY   32  27  81 SE12      29.98F WCI  23
ROCHESTER      CLOUDY    31  28  89 CALM      30.06F
PENN YAN       MOSUNNY   32  28  85 S3        30.07F
$$

             KEY
       WCI = WIND CHILL INDEX
       VSB = VISIBILITY
       HX  = HEAT INDEX
$$



USA.gov is the U.S. government's official web portal to all federal, state and local government web resources and services.